Location: Tamazert
(32.6352°N, 5.2072°W)
Time: 03:35:04
(UTC+00:00)

Tiros 1 despin weight - Pass Details

Date: 05 October 2022
Orbit: 590 x 637 km, 48.2° (Epoch: 30 November)

Event Time Altitude Azimuth Distance (km) Brightness Sun altitude
Rises 17:22:27 0° 297° (WNW) 2,850 ? 7.1°
Reaches altitude 10° 17:26:16 10° 330° (NNW) 1,961 ? 6.3°
Maximum altitude 17:27:55 12° 352° (N) 1,852 ? 6.0°
Drops below altitude 10° 17:29:34 10° 13° (NNE) 1,973 ? 5.6°
Sets 17:33:27 0° 46° (NE) 2,893 ? 4.8°
